sat.trackr.live / text

‹ back to catalog

STARLINK-33623

NORAD 63072 · 2025-035W

PAYLOAD ACTIVE UNKNOWN

§ Identity

Operator
Country
US
Launch date
2025-02-21
Launch site
AFETR
Launch vehicle
Mass (kg)
RCS (m²)

Purposes: comms

External: N2YO · Heavens-Above · Gunter

§ Orbital elements

Epoch: 2026-05-25T04:12:43.035840Z

Period
94.27 min
Inclination
43.0001°
Eccentricity
0.0001112
Mean motion
15.27597788 rev/d
Perigee alt
482.2 km
Apogee alt
483.8 km
Semi-major
6,861.1 km
B*
6.3890e-4
RAAN
75.4399°
Arg perigee
268.3042°
Mean anomaly
91.7682°
Rev number
7,142

§ Raw data

STARLINK-336231 63072U 25035W   26145.17549810  .00017370  00000+0  63890-3 0  99922 63072  43.0001  75.4399 0001112 268.3042  91.7682 15.27597788 71421

JSON: /api/v1/satellites/63072 · /tle

For live sub-satellite position, see the globe view (requires WebGL).

§ Visibility from observer

Set your observer location to see the next 7 days of passes ≥ 10°. The values pass through the URL so the page stays shareable.

No JS? Fill the form by hand. The geolocation button needs JavaScript.